Location: Unspecified
(0.0000°N, 0.0000°E)
Time: 18:04:36
(UTC+00:00)

STARLINK 1056 - Pass Details

Date: 24 January 2020
Orbit: 548 x 551 km, 53.0° (Epoch: 17 January)

Event Time Altitude Azimuth Distance (km) Brightness Sun altitude
Exits shadow 04:47:49 15° 4° (N) 1,532 5.7 -19.8°
Drops below altitude 10° 04:48:36 10° 9° (N) 1,806 6.1 -19.6°
Sets 04:50:58 0° 19° (NNE) 2,696 7.1 -19.0°
